Hourly Data Report for June 23, 2022

WIARTON A
ONTARIO
Current Station Operator: NAVCAN

44°44'39.000" N
81°06'31.000" W
221.90 m
6119499
71633
YVV

Download Data

Hourly Data (June 2022)
Hourly Data Report for June 23, 2022
TIME
LST
Temp Definition
°C
Dew Point Definition
°C
Rel Hum Definition
%
Precip. Amount Definition
mm

Wind Dir Definition
10's deg

Wind Spd Definition
km/h
Visibility Definition
km
Stn Press Definition
kPa
Hmdx Definition


Wind Chill Definition


Weather Definition


00:00 12.5 9.1 79   26 7 24.1 98.78     LegendNANA
01:00 11.9 9.3 84   25 10 24.1 98.76     Clear
02:00 11.5 9.6 88   26 7 24.1 98.75     LegendNANA
03:00 10.9 9.5 91   36 3 24.1 98.74     LegendNANA
04:00 11.3 9.9 91   24 7 24.1 98.76     Clear
05:00 10.3 9.3 93   21 5 24.1 98.80     LegendNANA
06:00 12.3 11.0 92   36 3 24.1 98.84     LegendNANA
07:00 16.8 11.6 71   2 7 24.1 98.88     Mainly Clear
08:00 18.4 11.5 64   1 12 24.1 98.91     LegendNANA
09:00 19.2 11.5 60   3 9 24.1 98.94     LegendNANA
10:00 20.1 11.6 57   1 11 24.1 98.97     Clear
11:00 20.6 9.0 47   2 13 24.1 98.96     LegendNANA
12:00 21.9 9.4 45   2 9 24.1 98.95     LegendNANA
13:00 22.0 9.8 45   4 10 24.1 98.98     Clear
14:00 22.7 7.8 38   36 9 24.1 98.95     LegendNANA
15:00 22.4 10.8 47   27 15 24.1 98.93     LegendNANA
16:00 22.2 9.7 44   30 12 24.1 98.90     Clear
17:00 21.1 8.4 44   28 17 24.1 98.92     LegendNANA
18:00 20.1 9.3 49   27 11 24.1 98.92     LegendNANA
19:00 18.7 8.9 53   27 8 24.1 98.91     Clear
20:00 17.0 9.1 59   24 5 24.1 98.90     LegendNANA
21:00 14.5 9.6 72   21 7 24.1 98.91     LegendNANA
22:00 10.8 9.2 89   16 5 24.1 98.95     Clear
23:00 11.1 9.8 91   19 6 24.1 98.97     LegendNANA

Notes on Data Quality.

Legend

  • E = Estimated
  • M = Missing
  • NA = Not Available*
  • [empty] = Indicates an unobserved value
Date modified: